Time,TemperatureF,DewpointF,PressureIn,WindDirection,WindDirectionDegrees,WindSpeedMPH,WindSpeedGustMPH,Humidity,HourlyPrecipIn,Conditions,Clouds,dailyrainin,SolarRadiationWatts/m^2,SoftwareType,DateUTC
2013-04-18 00:00:00,37.0,26.0,-100.00,ESE,112,1.0,-999.0,63,-99.99,,,-99.99,0.000000,,2013-04-18 04:00:00,
2013-04-18 00:43:00,37.0,26.0,-100.00,ESE,112,1.0,-999.0,63,-99.99,,,-99.99,0.000000,,2013-04-18 04:43:00,
2013-04-18 00:53:00,37.0,26.0,-100.00,ESE,112,1.0,-999.0,63,-99.99,,,-99.99,0.000000,,2013-04-18 04:53:00,
2013-04-18 01:00:00,37.0,26.0,-100.00,ESE,112,2.0,-999.0,65,-99.99,,,-99.99,0.000000,,2013-04-18 05:00:00,
2013-04-18 01:42:00,37.0,26.0,-100.00,ESE,112,2.0,-999.0,65,-99.99,,,-99.99,0.000000,,2013-04-18 05:42:00,
2013-04-18 01:52:00,37.0,26.0,-100.00,ESE,112,2.0,-999.0,65,-99.99,,,-99.99,0.000000,,2013-04-18 05:52:00,
2013-04-18 02:00:00,36.0,28.0,-100.00,ESE,112,2.0,-999.0,71,-99.99,,,-99.99,0.000000,,2013-04-18 06:00:00,
2013-04-18 02:42:00,36.0,28.0,-100.00,ESE,112,2.0,-999.0,71,-99.99,,,-99.99,0.000000,,2013-04-18 06:42:00,
2013-04-18 02:52:00,36.0,28.0,-100.00,ESE,112,2.0,-999.0,71,-99.99,,,-99.99,0.000000,,2013-04-18 06:52:00,
2013-04-18 03:00:00,34.0,30.0,-100.00,East,90,1.0,-999.0,82,-99.99,,,-99.99,0.000000,,2013-04-18 07:00:00,
2013-04-18 03:42:00,34.0,30.0,-100.00,East,90,1.0,-999.0,82,-99.99,,,-99.99,0.000000,,2013-04-18 07:42:00,
2013-04-18 03:52:00,34.0,30.0,-100.00,East,90,1.0,-999.0,82,-99.99,,,-99.99,0.000000,,2013-04-18 07:52:00,
2013-04-18 04:00:00,33.0,31.0,-100.00,ENE,67,0.0,-999.0,92,-99.99,,,-99.99,0.000000,,2013-04-18 08:00:00,
2013-04-18 04:42:00,33.0,31.0,-100.00,ENE,67,0.0,-999.0,92,-99.99,,,-99.99,0.000000,,2013-04-18 08:42:00,
2013-04-18 04:52:00,33.0,31.0,-100.00,ENE,67,0.0,-999.0,92,-99.99,,,-99.99,0.000000,,2013-04-18 08:52:00,
2013-04-18 05:00:00,33.0,32.0,-100.00,ENE,67,0.0,-999.0,95,0.01,,,-99.99,0.000000,,2013-04-18 09:00:00,
2013-04-18 05:43:00,33.0,32.0,-100.00,ENE,67,0.0,-999.0,95,0.01,,,-99.99,0.000000,,2013-04-18 09:43:00,
2013-04-18 05:53:00,33.0,32.0,-100.00,ENE,67,0.0,-999.0,95,0.01,,,-99.99,0.000000,,2013-04-18 09:53:00,
2013-04-18 06:00:00,33.0,32.0,-100.00,East,90,1.0,-999.0,96,-99.99,,,-99.99,0.000000,,2013-04-18 10:00:00,
2013-04-18 06:42:00,33.0,32.0,-100.00,East,90,1.0,-999.0,96,-99.99,,,-99.99,0.000000,,2013-04-18 10:42:00,
2013-04-18 06:52:00,33.0,32.0,-100.00,East,90,1.0,-999.0,96,-99.99,,,-99.99,0.000000,,2013-04-18 10:52:00,
2013-04-18 07:00:00,34.0,33.0,-100.00,SSE,157,1.0,-999.0,96,-99.99,,,-99.99,0.000000,,2013-04-18 11:00:00,
2013-04-18 07:42:00,34.0,33.0,-100.00,SSE,157,1.0,-999.0,96,-99.99,,,-99.99,0.000000,,2013-04-18 11:42:00,
2013-04-18 07:52:00,34.0,33.0,-100.00,SSE,157,1.0,-999.0,96,-99.99,,,-99.99,0.000000,,2013-04-18 11:52:00,
2013-04-18 08:00:00,33.0,32.0,-100.00,East,90,0.0,-999.0,96,0.01,,,-99.99,3.480000,,2013-04-18 12:00:00,
2013-04-18 08:42:00,33.0,32.0,-100.00,East,90,0.0,-999.0,96,0.01,,,-99.99,3.480000,,2013-04-18 12:42:00,
2013-04-18 08:52:00,33.0,32.0,-100.00,East,90,0.0,-999.0,96,0.01,,,-99.99,3.480000,,2013-04-18 12:52:00,
2013-04-18 09:00:00,33.0,32.0,-100.00,ENE,67,0.0,-999.0,96,0.05,,,-99.99,16.240000,,2013-04-18 13:00:00,
2013-04-18 09:43:00,33.0,32.0,-100.00,ENE,67,0.0,-999.0,96,0.05,,,-99.99,16.240000,,2013-04-18 13:43:00,
2013-04-18 09:53:00,33.0,32.0,-100.00,ENE,67,0.0,-999.0,96,0.05,,,-99.99,16.240000,,2013-04-18 13:53:00,
2013-04-18 10:00:00,34.0,33.0,-100.00,NE,45,0.0,-999.0,96,0.06,,,-99.99,53.360001,,2013-04-18 14:00:00,
2013-04-18 10:43:00,34.0,33.0,-100.00,NE,45,0.0,-999.0,96,0.06,,,-99.99,53.360001,,2013-04-18 14:43:00,
2013-04-18 10:52:00,34.0,33.0,-100.00,NE,45,0.0,-999.0,96,0.06,,,-99.99,53.360001,,2013-04-18 14:52:00,
2013-04-18 11:00:00,35.0,34.0,-100.00,ESE,112,0.0,-999.0,96,-99.99,,,-99.99,126.440002,,2013-04-18 15:00:00,
2013-04-18 11:43:00,35.0,34.0,-100.00,ESE,112,0.0,-999.0,96,-99.99,,,-99.99,126.440002,,2013-04-18 15:43:00,
2013-04-18 11:53:00,35.0,34.0,-100.00,ESE,112,0.0,-999.0,96,-99.99,,,-99.99,126.440002,,2013-04-18 15:53:00,
2013-04-18 12:00:00,35.0,34.0,-100.00,ENE,67,1.0,-999.0,94,0.01,,,-99.99,117.160004,,2013-04-18 16:00:00,
2013-04-18 12:43:00,35.0,34.0,-100.00,ENE,67,1.0,-999.0,94,0.01,,,-99.99,117.160004,,2013-04-18 16:43:00,
2013-04-18 12:53:00,35.0,34.0,-100.00,ENE,67,1.0,-999.0,94,0.01,,,-99.99,117.160004,,2013-04-18 16:53:00,
2013-04-18 13:00:00,37.0,35.0,-100.00,SE,135,0.0,-999.0,93,0.01,,,-99.99,170.520004,,2013-04-18 17:00:00,
2013-04-18 13:43:00,37.0,35.0,-100.00,SE,135,0.0,-999.0,93,0.01,,,-99.99,170.520004,,2013-04-18 17:43:00,
2013-04-18 13:52:00,37.0,35.0,-100.00,SE,135,0.0,-999.0,93,0.01,,,-99.99,170.520004,,2013-04-18 17:52:00,
2013-04-18 14:00:00,37.0,35.0,-100.00,NE,45,1.0,-999.0,91,-99.99,,,-99.99,233.160004,,2013-04-18 18:00:00,
2013-04-18 14:43:00,37.0,35.0,-100.00,NE,45,1.0,-999.0,91,-99.99,,,-99.99,233.160004,,2013-04-18 18:43:00,
2013-04-18 14:52:00,37.0,35.0,-100.00,NE,45,1.0,-999.0,91,-99.99,,,-99.99,233.160004,,2013-04-18 18:52:00,
2013-04-18 15:00:00,38.0,36.0,-100.00,SSE,157,1.0,-999.0,92,-99.99,,,-99.99,162.399994,,2013-04-18 19:00:00,
2013-04-18 15:43:00,38.0,36.0,-100.00,SSE,157,1.0,-999.0,92,-99.99,,,-99.99,162.399994,,2013-04-18 19:43:00,
2013-04-18 15:53:00,38.0,36.0,-100.00,SSE,157,1.0,-999.0,92,-99.99,,,-99.99,162.399994,,2013-04-18 19:53:00,
2013-04-18 16:00:00,36.0,34.0,-100.00,WNW,292,0.0,-999.0,92,0.02,,,-99.99,91.639999,,2013-04-18 20:00:00,
2013-04-18 16:42:00,36.0,34.0,-100.00,WNW,292,0.0,-999.0,92,0.02,,,-99.99,91.639999,,2013-04-18 20:42:00,
2013-04-18 16:52:00,36.0,34.0,-100.00,WNW,292,0.0,-999.0,92,0.02,,,-99.99,91.639999,,2013-04-18 20:52:00,
2013-04-18 19:00:00,34.0,33.0,-100.00,ESE,112,1.0,-999.0,94,-99.99,,,-99.99,55.680000,,2013-04-18 23:00:00,
2013-04-18 19:42:00,34.0,33.0,-100.00,ESE,112,1.0,-999.0,94,-99.99,,,-99.99,55.680000,,2013-04-18 23:42:00,
2013-04-18 19:52:00,34.0,33.0,-100.00,ESE,112,1.0,-999.0,94,-99.99,,,-99.99,55.680000,,2013-04-18 23:52:00,
2013-04-18 22:00:00,33.0,32.0,-100.00,ESE,112,0.0,-999.0,97,0.03,,,-99.99,0.000000,,2013-04-19 02:00:00,
2013-04-18 22:42:00,33.0,32.0,-100.00,ESE,112,0.0,-999.0,97,0.03,,,-99.99,0.000000,,2013-04-19 02:42:00,
2013-04-18 22:52:00,33.0,32.0,-100.00,ESE,112,0.0,-999.0,97,0.03,,,-99.99,0.000000,,2013-04-19 02:52:00,